Regional Weather Roundup
Issued by NWS

Home | Current Version | Previous Version | Text Only | Print | Product List | Glossary On
Versions: 1 2 3 4 5 6 7 8 9 10 11 12 13 14 15 16 17 18 19 20 21 22 23 24 25 26 27 28 29 30 31 32 33 34 35 36 37 38 39 40 41 42 43 44 45 46 47 48 49 50
000
ASCA44 KEWX 192320
RWRMX

LATIN AMERICA AND CARIBBEAN REGIONAL WEATHER ROUNDUP
NATIONAL WEATHER SERVICE AUSTIN/SAN ANTONIO TX
600 PM CDT THU APR 19 2018

NOTE: "FAIR" INDICATED FEW OR NO CLOUDS BELOW 12,000 FEET WITH NO
SIGNIFICANT WEATHER AND/OR OBSTRUCTIONS TO VISIBILITY.

BAJA CALIFORNIA

CITY           SKY/WX    TMP DP  RH WIND       PRES   REMARKS
LORETO         PTSUNNY   81  64  57 NE15      29.85F
LA PAZ         PTSUNNY   88  25  10 N12       29.89F
MEXICALI       SUNNY     72  28  20 W17       29.89F
S.J. DEL CABO  MOSUNNY   84  37  18 E12       29.89F
TIJUANA        PTSUNNY   59  39  47 MISG      30.08F

NORTHWESTERN MEXICO

CITY           SKY/WX    TMP DP  RH WIND       PRES   REMARKS
CULIACAN       MOSUNNY   93  52  24 SW9       29.82F HX  90
DURANGO        PTSUNNY   86  10   6 SW15      30.10F
GUAYMAS        MOSUNNY   84  34  16 S12       29.82F
HERMOSILLO     SUNNY     93  34  12 SW15      29.87F
CD. JUAREZ     PTSUNNY   81  41  24 E24       29.96F
LOS MOCHIS     PTSUNNY   84  34  16 W15         N/A
OBREGON        MOSUNNY   93  25   8 W12       29.84F

NORTHEASTERN MEXICO

CITY           SKY/WX    TMP DP  RH WIND       PRES   REMARKS
CHIHUAHUA      CLOUDY    81  46  30 S7        30.01F
MATAMOROS      PTSUNNY   79  64  61 E15       30.13S
MONCLOVA       CLOUDY    63  48  59 N6        30.18F
MONTERREY      DRIZZLE   68  64  88 SE6       30.14F FOG
NUEVO LAREDO   PTSUNNY   81  54  39 E12       30.13F
PIEDRAS NEGRAS MOSUNNY   75  50  41 NE12      30.19F
REYNOSA        PTSUNNY   79  61  53 NE9       30.13S
SALTILLO       MOSUNNY   66  54  63 N23         N/A
TORREON        MOSUNNY   91  55  29 NE22      29.94F
CD. VICTORIA   PTSUNNY   86  61  42 E9        30.07F

WESTERN MEXICO

CITY           SKY/WX    TMP DP  RH WIND       PRES   REMARKS
AGUASCALIENTES PTSUNNY   86  27  11 S7        30.15F
COLIMA         MOSUNNY   81  70  69 W12       29.96R
DEL BAJIO      MOSUNNY   86  39  19 NE8       30.19F
GUADALAJARA    MOSUNNY   90  28  11 NW7       30.06F
MANZANILLO       N/A    N/A N/A N/A MISG        N/A
MAZATLAN       PTSUNNY   86  54  32 W14       29.84F
P. VALLARTA    PTSUNNY   77  72  83 S14       29.85F
URUAPAN        PTSUNNY   79  52  38 CALM      30.10F
ZACATECAS      PTSUNNY   86  28  12 S12       30.20

CENTRAL MEXICO

CITY           SKY/WX    TMP DP  RH WIND       PRES   REMARKS
CUERNAVACA     MOSUNNY   91  43  18 SW9       29.98S
MEXICO CITY    MOSUNNY   79  32  18 NE15      30.27S
MORELIA        MOSUNNY   88  41  19 N12       30.12F
POZA RICA        N/A     82  72  69 E12       30.09F
PUEBLA         MOSUNNY   73  32  21 NE13      30.27
QUERETARO      MOSUNNY   81  43  26 E23       30.25F
S. LUIS POTOSI PTSUNNY   75  37  25 E22       30.24S
TAMPICO        MOSUNNY   79  70  73 MISG      30.08S
TOLUCA         MOSUNNY   72  32  23 NE17      30.33S

SOUTHERN MEXICO

CITY           SKY/WX    TMP DP  RH WIND       PRES   REMARKS
ACAPULCO       MOSUNNY   86  75  70 S3        29.83F HX  95
B. DE HUATULCO PTSUNNY  N/A N/A N/A S14       29.85F
OAXACA         CLOUDY    82  37  20 N10       30.15S
P. ESCONDIDO   SUNNY     88  75  66 SW12      29.93F HX  97
VERACRUZ       MOSUNNY   82  70  65 NE14      30.03F
ZIHUATANEJO    PTSUNNY   88  75  66 SW9       29.84F HX  97

YUCATAN PENINSULA

CITY           SKY/WX    TMP DP  RH WIND       PRES   REMARKS
CAMPECHE       PTSUNNY   82  79  89 N12G23    29.93R HX  93
CANCUN         MOSUNNY   81  72  74 E12       30.03S
CHETUMAL       PTSUNNY   84  73  70 SE14      29.98S HX  91
CD. DEL CARMEN MOSUNNY   82  73  74 NE14      29.94S
COZUMEL        MOSUNNY   84  70  61 E13       30.00F
MERIDA         PTSUNNY   90  68  48 N12       29.96S HX  93
MINATITLAN     MOSUNNY   81  68  65 MISG      29.95
TAPACHULA      PTSUNNY   86  77  74 SW7       29.81F HX  97
TUX. GUTIERREZ CLOUDY    86  68  54 NW15G28   29.89R
VILLAHERMOSA   MOSUNNY   88  72  58 N6        29.95R HX  94

CENTRAL AMERICA

CITY           SKY/WX    TMP DP  RH WIND       PRES   REMARKS
BELIZE CITY    MOSUNNY   84  75  74 E10       29.98S HX  92
MANAGUA        PTCLDY    91  68  46 E12       29.80S HX  95

CARIBBEAN

CITY           SKY/WX    TMP DP  RH WIND       PRES   REMARKS
ARUBA          PTCLDY    82  73  74 E23       29.89S
CURACAO          N/A     81  72  74 E18       29.94R
KINGSTON       PTCLDY    84  73  70 SE22      29.94S HX  91
NASSAU         MOCLDY    77  73  88 CALM      30.08S
SAN JUAN       PTCLDY    81  72  74 E8        30.09R
SANTO DOMINGO  PTCLDY    81  72  74 SE7       30.03S
ST. CROIX      CLEAR     79  66  65 E16       30.09
ST. KITTS      PTCLDY    79  72  78 E14       30.09S
ST. MAARTEN    PTCLDY    79  68  69 E14       30.09S
ST. THOMAS     PTCLDY    81  70  69 E13       30.09

$$




USA.gov is the U.S. government's official web portal to all federal, state and local government web resources and services.